• In Uzbekistan
  • List of Countries
  • For 7 days
  • Water Temperature
  • Satellite Maps
  • Weather Map
  • Weather Widgets
  • user-avatar
    Login

    Hourly Weather Samroung

    Today, 24 January, Wednesday

    Time Temperature Precipitation Wind Pressure Humidity
    00:00 +26°C° 0.5 mm 1 mps 755 mmHg 92%
    01:00 +26°C° 0 mm 1 mps 754 mmHg 92%
    02:00 +26°C° 0.5 mm 1 mps 754 mmHg 93%
    03:00 +26°C° 0.5 mm 1 mps 754 mmHg 94%
    04:00 +26°C° 0.5 mm 2 mps 754 mmHg 94%
    05:00 +26°C° 0.2 mm 2 mps 754 mmHg 94%
    06:00 +26°C° 0.2 mm 2 mps 754 mmHg 94%
    07:00 +26°C° 0 mm 2 mps 754 mmHg 93%
    08:00 +27°C° 0.7 mm 2 mps 755 mmHg 89%
    09:00 +29°C° 0.7 mm 2 mps 755 mmHg 86%
    10:00 +30°C° 0.7 mm 2 mps 755 mmHg 82%
    11:00 +30°C° 1.8 mm 2 mps 755 mmHg 80%
    12:00 +31°C° 1.8 mm 2 mps 754 mmHg 78%
    13:00 +32°C° 1.8 mm 2 mps 754 mmHg 76%
    14:00 +31°C° 2 mm 2 mps 753 mmHg 79%
    15:00 +31°C° 2 mm 2 mps 753 mmHg 82%
    16:00 +30°C° 2 mm 2 mps 753 mmHg 85%
    17:00 +29°C° 1.5 mm 1 mps 753 mmHg 87%
    18:00 +28°C° 1.5 mm 1 mps 753 mmHg 89%
    19:00 +25°C° 1.5 mm 0 mps 753 mmHg 92%
    20:00 +25°C° 0.8 mm 0 mps 754 mmHg 92%
    21:00 +25°C° 0.8 mm 0 mps 754 mmHg 92%
    22:00 +27°C° 0.8 mm 1 mps 755 mmHg 92%
    23:00 +27°C° 0.6 mm 1 mps 754 mmHg 92%

    Tomorrow, 25 January, Thursday

    Time Temperature Precipitation Wind Pressure Humidity
    00:00 +27°C° 0.6 mm 1 mps 754 mmHg 92%
    01:00 +27°C° 0.6 mm 1 mps 754 mmHg 93%
    02:00 +26°C° 0.1 mm 2 mps 754 mmHg 93%
    03:00 +26°C° 0.1 mm 2 mps 753 mmHg 94%
    04:00 +26°C° 0.1 mm 3 mps 753 mmHg 94%
    05:00 +26°C° 0 mm 2 mps 753 mmHg 94%
    06:00 +26°C° 0 mm 2 mps 754 mmHg 94%
    07:00 +26°C° 0 mm 2 mps 754 mmHg 94%
    08:00 +27°C° 0 mm 2 mps 754 mmHg 87%
    09:00 +28°C° 0 mm 3 mps 755 mmHg 81%
    10:00 +30°C° 0 mm 3 mps 755 mmHg 75%
    11:00 +31°C° 0 mm 3 mps 755 mmHg 70%
    12:00 +33°C° 0 mm 3 mps 755 mmHg 65%
    13:00 +34°C° 0 mm 3 mps 754 mmHg 60%
    14:00 +33°C° 0.1 mm 3 mps 754 mmHg 66%
    15:00 +31°C° 0.1 mm 2 mps 753 mmHg 72%
    16:00 +31°C° 0.1 mm 2 mps 752 mmHg 78%
    17:00 +29°C° 0.1 mm 2 mps 753 mmHg 82%
    18:00 +28°C° 0.1 mm 1 mps 753 mmHg 86%
    19:00 +27°C° 0.1 mm 1 mps 753 mmHg 90%
    20:00 +27°C° 0.3 mm 1 mps 754 mmHg 91%
    21:00 +27°C° 0.3 mm 1 mps 754 mmHg 92%
    22:00 +24°C° 0.3 mm 0 mps 755 mmHg 93%
    23:00 +26°C° 0 mm 1 mps 755 mmHg 93%

    Day after tomorrow, 26 January, Friday

    Time Temperature Precipitation Wind Pressure Humidity
    00:00 +26°C° 0 mm 1 mps 755 mmHg 93%
    01:00 +26°C° 0 mm 1 mps 755 mmHg 94%
    02:00 +26°C° 0 mm 1 mps 754 mmHg 94%
    03:00 +26°C° 0 mm 1 mps 754 mmHg 94%
    04:00 +25°C° 0 mm 1 mps 754 mmHg 94%
    05:00 +26°C° 0 mm 1 mps 754 mmHg 94%
    06:00 +26°C° 0 mm 1 mps 754 mmHg 94%
    07:00 +26°C° 0 mm 1 mps 755 mmHg 94%
    08:00 +28°C° 0 mm 1 mps 755 mmHg 85%
    09:00 +30°C° 0 mm 1 mps 756 mmHg 76%
    10:00 +32°C° 0 mm 1 mps 756 mmHg 68%
    11:00 +32°C° 0.2 mm 1 mps 756 mmHg 68%
    12:00 +32°C° 0.2 mm 2 mps 755 mmHg 68%
    13:00 +34°C° 0.2 mm 2 mps 754 mmHg 68%
    14:00 +32°C° 0.3 mm 2 mps 754 mmHg 71%
    15:00 +32°C° 0.3 mm 2 mps 753 mmHg 74%
    16:00 +31°C° 0.3 mm 1 mps 752 mmHg 77%
    17:00 +30°C° 0.1 mm 1 mps 753 mmHg 81%
    18:00 +29°C° 0.1 mm 1 mps 753 mmHg 85%
    19:00 +28°C° 0.1 mm 1 mps 754 mmHg 89%
    20:00 +27°C° 0.1 mm 1 mps 754 mmHg 90%
    21:00 +27°C° 0.1 mm 1 mps 755 mmHg 92%
    22:00 +27°C° 0.1 mm 1 mps 755 mmHg 93%
    23:00 +27°C° 0.2 mm 1 mps 755 mmHg 93%

    27 January, Saturday

    Time Temperature Precipitation Wind Pressure Humidity
    00:00 +27°C° 0.2 mm 1 mps 755 mmHg 94%
    01:00 +26°C° 0.2 mm 1 mps 755 mmHg 95%
    02:00 +26°C° 1 mm 1 mps 754 mmHg 95%
    03:00 +26°C° 1 mm 1 mps 754 mmHg 94%
    04:00 +24°C° 1 mm 0 mps 754 mmHg 94%
    05:00 +26°C° 0.5 mm 1 mps 754 mmHg 94%
    06:00 +26°C° 0.5 mm 1 mps 755 mmHg 94%
    07:00 +26°C° 0.5 mm 1 mps 755 mmHg 94%
    08:00 +28°C° 0.3 mm 1 mps 755 mmHg 90%
    09:00 +29°C° 0.3 mm 1 mps 756 mmHg 86%
    10:00 +30°C° 0.3 mm 1 mps 756 mmHg 82%
    11:00 +31°C° 1.3 mm 2 mps 756 mmHg 81%
    12:00 +31°C° 1.3 mm 2 mps 755 mmHg 81%
    13:00 +31°C° 1.3 mm 2 mps 755 mmHg 80%
    14:00 +31°C° 2.3 mm 2 mps 754 mmHg 82%
    15:00 +30°C° 2.3 mm 2 mps 753 mmHg 85%
    16:00 +30°C° 2.3 mm 2 mps 753 mmHg 87%
    17:00 +29°C° 0.4 mm 1 mps 753 mmHg 89%
    18:00 +28°C° 0.4 mm 1 mps 753 mmHg 91%
    19:00 +27°C° 0.4 mm 1 mps 754 mmHg 93%
    20:00 +27°C° 0 mm 1 mps 754 mmHg 93%
    21:00 +27°C° 0 mm 1 mps 755 mmHg 93%
    22:00 +27°C° 0 mm 1 mps 755 mmHg 93%
    23:00 +27°C° 0 mm 1 mps 755 mmHg 93%

    28 January, Sunday

    Time Temperature Precipitation Wind Pressure Humidity
    00:00 +26°C° 0 mm 1 mps 755 mmHg 93%
    01:00 +26°C° 0 mm 1 mps 755 mmHg 94%
    02:00 +26°C° 0 mm 1 mps 754 mmHg 94%
    03:00 +26°C° 0 mm 1 mps 754 mmHg 94%
    04:00 +26°C° 0 mm 1 mps 754 mmHg 94%
    05:00 +26°C° 0 mm 1 mps 754 mmHg 94%
    06:00 +26°C° 0 mm 1 mps 754 mmHg 94%
    07:00 +26°C° 0 mm 1 mps 755 mmHg 94%
    08:00 +28°C° 0 mm 1 mps 755 mmHg 88%
    09:00 +29°C° 0 mm 1 mps 756 mmHg 82%
    10:00 +30°C° 0 mm 1 mps 756 mmHg 76%
    11:00 +31°C° 0 mm 1 mps 756 mmHg 72%
    12:00 +32°C° 0 mm 2 mps 755 mmHg 68%
    13:00 +34°C° 0 mm 2 mps 754 mmHg 64%
    14:00 +34°C° 0 mm 2 mps 754 mmHg 67%
    15:00 +32°C° 0 mm 2 mps 753 mmHg 70%
    16:00 +32°C° 0 mm 2 mps 752 mmHg 73%
    17:00 +30°C° 0 mm 2 mps 753 mmHg 78%
    18:00 +29°C° 0 mm 2 mps 753 mmHg 84%
    19:00 +28°C° 0 mm 2 mps 754 mmHg 89%
    20:00 +28°C° 0.3 mm 2 mps 755 mmHg 91%
    21:00 +27°C° 0.3 mm 1 mps 755 mmHg 92%
    22:00 +27°C° 0.3 mm 1 mps 756 mmHg 94%
    23:00 +27°C° 0.3 mm 1 mps 756 mmHg 94%

    29 January, Monday

    Time Temperature Precipitation Wind Pressure Humidity
    00:00 +27°C° 0.3 mm 1 mps 755 mmHg 95%
    01:00 +26°C° 0.3 mm 1 mps 755 mmHg 95%
    02:00 +26°C° 0.1 mm 1 mps 755 mmHg 95%
    03:00 +26°C° 0.1 mm 1 mps 755 mmHg 95%
    04:00 +26°C° 0.1 mm 1 mps 754 mmHg 95%
    05:00 +26°C° 0.1 mm 1 mps 755 mmHg 95%
    06:00 +26°C° 0.1 mm 1 mps 755 mmHg 94%
    07:00 +26°C° 0.1 mm 1 mps 756 mmHg 94%
    08:00 +28°C° 0 mm 1 mps 756 mmHg 86%
    09:00 +30°C° 0 mm 1 mps 757 mmHg 77%
    10:00 +32°C° 0 mm 1 mps 757 mmHg 69%
    11:00 +32°C° 0.4 mm 1 mps 756 mmHg 70%
    12:00 +33°C° 0.4 mm 1 mps 756 mmHg 71%
    13:00 +33°C° 0.4 mm 1 mps 755 mmHg 72%
    14:00 +32°C° 0.4 mm 2 mps 754 mmHg 75%
    15:00 +32°C° 0.4 mm 2 mps 754 mmHg 78%
    16:00 +31°C° 0.4 mm 3 mps 753 mmHg 81%
    17:00 +30°C° 0.4 mm 2 mps 754 mmHg 84%
    18:00 +29°C° 0.4 mm 2 mps 754 mmHg 88%
    19:00 +28°C° 0.4 mm 2 mps 755 mmHg 92%
    20:00 +28°C° 1 mm 2 mps 756 mmHg 93%
    21:00 +27°C° 1 mm 2 mps 756 mmHg 94%
    22:00 +27°C° 1 mm 2 mps 757 mmHg 95%
    23:00 +27°C° 1 mm 1 mps 756 mmHg 95%
    Show more